Tracking 35334 objects as of 13-Sep-2026
HD Live streaming from Space Station
objects crossing your sky now

COSMOS 1646 DEB


COSMOS 1646 DEB is no longer on orbit


NORAD ID: 18658
Int'l Code: 1985-030T
Launch date: April 18, 1985
Source: Commonwealth of Independent States (former USSR) (CIS)
Launch site: TYURATAM MISSILE AND SPACE COMPLEX (TTMTR)
Decay date: 1988-02-09

Note: This is SATELLITE DEBRIS
Your satellite tracking list
Your tracking list is empty




NASA's NSSDC Master Catalog

Two Line Element Set (TLE):
1 18658U 85030  T 88039.87510137  .08433975 +10800-4 +32960-2 0  9998
2 18658 065.0208 004.5357 0007962 187.8459 172.3693 16.23438847010762
Source of the keplerian elements: AFSPC